sat.trackr.live / text

‹ back to catalog

STARLINK-32915

NORAD 63152 · 2025-043W

PAYLOAD ACTIVE UNKNOWN

§ Identity

Operator
Country
US
Launch date
2025-03-03
Launch site
AFETR
Launch vehicle
Mass (kg)
RCS (m²)

Purposes: comms

External: N2YO · Heavens-Above · Gunter

§ Orbital elements

Epoch: 2026-09-20T13:05:20.521824Z

Period
94.27 min
Inclination
43.0037°
Eccentricity
0.0001795
Mean motion
15.27588684 rev/d
Perigee alt
481.8 km
Apogee alt
484.3 km
Semi-major
6,861.2 km
B*
5.2764e-4
RAAN
2.6084°
Arg perigee
278.6073°
Mean anomaly
81.4575°
Rev number
8,708

§ Raw data

STARLINK-329151 63152U 25043W   26263.54537641  .00014289  00000+0  52764-3 0  99952 63152  43.0037   2.6084 0001795 278.6073  81.4575 15.27588684 87088

JSON: /api/v1/satellites/63152 · /tle

For live sub-satellite position, see the globe view (requires WebGL).

§ Visibility from observer

Set your observer location to see the next 7 days of passes ≥ 10°. The values pass through the URL so the page stays shareable.

No JS? Fill the form by hand. The geolocation button needs JavaScript.